Caumont Avignon, France

1:02 PM CEST on March 26, 2017 (GMT +0200)
Caumont

Weather History for LFMV - August, 2014

Change the Weather History Date:

Monday, August 18, 2014

  Actual Average Record
Temperature  
Mean Temperature 70 °F -  
Max Temperature 86 °F - - ()
Min Temperature 55 °F - - ()
Cooling Degree Days 6    
Growing Degree Days 20 (Base 50)    
Moisture  
Dew Point 55 °F    
Average Humidity 63    
Maximum Humidity 88    
Minimum Humidity 29    
Precipitation  
Precipitation 0.00 in - - ()
Sea Level Pressure  
Sea Level Pressure 29.94 in    
Wind  
Wind Speed 4 mph ()    
Max Wind Speed 14 mph    
Max Gust Speed -    
Visibility 6.2 miles    
Events      
T = Trace of Precipitation, MM = Missing Value Source: Averaged Metar Reports

Daily Weather History Graph

Daily Weather History Graph

Search for Another Location

Airport or City:

Trip Planner

Search our weather history database for the weather conditions in past years. The results will help you decide how hot, cold, wet, or windy it might be!

Date:

Astronomy

Aug. 18, 2014 Rise Set
Actual Time 6:47 AM CEST 8:40 PM CEST
Civil Twilight 6:16 AM CEST 9:11 PM CEST
Nautical Twilight 5:38 AM CEST 9:48 PM CEST
Astronomical Twilight 4:57 AM CEST 10:29 PM CEST
Moon 12:41 AM CEST (8/18) 3:31 PM CEST (8/18)
Length of Visible Light 14h 54m
Length of Day
13h 52m
Last Quarter, 41% of the Moon is Illuminated
Aug 18
Last Quarter
Aug 25
New
Sep 2
First Quarter
Sep 9
Full
Sep 16
Last Quarter

Hourly Weather History & Observations

Time (CEST) Temp. Heat Index Dew Point Humidity Pressure Visibility Wind Dir Wind Speed Gust Speed Precip Events Conditions
12:00 AM 60.8 °F - 53.6 °F 77% 30.01 in 6.2 mi SE 1.2 mph - N/A   Unknown
12:30 AM 60.8 °F - 53.6 °F 77% 30.01 in 6.2 mi Calm Calm - N/A   Unknown
1:00 AM 59.0 °F - 53.6 °F 82% 29.98 in 6.2 mi Variable 1.2 mph - N/A   Unknown
1:30 AM 57.2 °F - 53.6 °F 88% 29.98 in 6.2 mi Variable 2.3 mph - N/A   Unknown
2:00 AM 57.2 °F - 51.8 °F 82% 29.98 in 6.2 mi SSE 3.5 mph - N/A   Unknown
2:30 AM 57.2 °F - 51.8 °F 82% 29.98 in 6.2 mi SE 2.3 mph - N/A   Unknown
3:00 AM 55.4 °F - 51.8 °F 88% 29.98 in 6.2 mi SE 3.5 mph - N/A   Unknown
3:30 AM 55.4 °F - 51.8 °F 88% 29.95 in 6.2 mi Variable 2.3 mph - N/A   Unknown
4:00 AM 59.0 °F - 51.8 °F 77% 29.95 in 6.2 mi Variable 3.5 mph - N/A   Unknown
4:30 AM 59.0 °F - 50.0 °F 72% 29.95 in 6.2 mi SE 4.6 mph - N/A   Unknown
5:00 AM 59.0 °F - 50.0 °F 72% 29.95 in 6.2 mi ESE 3.5 mph - N/A   Unknown
5:30 AM 59.0 °F - 50.0 °F 72% 29.95 in 6.2 mi Variable 2.3 mph - N/A   Unknown
6:00 AM 57.2 °F - 50.0 °F 77% 29.95 in 6.2 mi SE 4.6 mph - N/A   Unknown
6:30 AM 55.4 °F - 48.2 °F 77% 29.95 in 6.2 mi Variable 2.3 mph - N/A   Unknown
7:30 AM 55.4 °F - 51.8 °F 88% 29.98 in 6.2 mi Variable 1.2 mph - N/A   Unknown
8:00 AM 60.8 °F - 50.0 °F 68% 29.98 in 6.2 mi Variable 1.2 mph - N/A   Unknown
8:30 AM 62.6 °F - 50.0 °F 63% 29.98 in 6.2 mi SE 3.5 mph - N/A   Unknown
9:00 AM 66.2 °F - 51.8 °F 60% 29.98 in 6.2 mi Variable 1.2 mph - N/A   Unknown
9:30 AM 69.8 °F - 50.0 °F 49% 29.95 in 6.2 mi Variable 2.3 mph - N/A   Unknown
10:00 AM 69.8 °F - 50.0 °F 49% 29.98 in 6.2 mi Variable 3.5 mph - N/A   Unknown
10:30 AM 73.4 °F - 53.6 °F 50% 29.98 in 6.2 mi Variable 2.3 mph - N/A   Unknown
11:00 AM 75.2 °F - 55.4 °F 50% 29.95 in 6.2 mi Variable 3.5 mph - N/A   Unknown
11:30 AM 75.2 °F - 53.6 °F 47% 29.95 in 6.2 mi NNE 3.5 mph - N/A   Unknown
12:00 PM 78.8 °F - 50.0 °F 36% 29.95 in 6.2 mi Variable 3.5 mph - N/A   Unknown
12:30 PM 78.8 °F - 50.0 °F 36% 29.95 in 6.2 mi Variable 3.5 mph - N/A   Unknown
1:30 PM 82.4 °F - 51.8 °F 35% 29.95 in 6.2 mi Variable 3.5 mph - N/A   Unknown
2:00 PM 84.2 °F - 51.8 °F 33% 29.92 in 6.2 mi South 8.1 mph - N/A   Unknown
2:30 PM 84.2 °F 82.8 °F 53.6 °F 35% 29.92 in 6.2 mi SSW 6.9 mph - N/A   Unknown
3:00 PM 84.2 °F - 51.8 °F 33% 29.92 in 6.2 mi SSW 6.9 mph - N/A   Unknown
3:30 PM 86.0 °F - 50.0 °F 29% 29.92 in 6.2 mi South 6.9 mph - N/A   Unknown
4:00 PM 84.2 °F 82.8 °F 53.6 °F 35% 29.89 in 6.2 mi SSE 8.1 mph - N/A   Unknown
4:30 PM 86.0 °F 84.2 °F 53.6 °F 33% 29.89 in 6.2 mi SSE 10.4 mph - N/A   Unknown
5:00 PM 84.2 °F 82.8 °F 53.6 °F 35% 29.89 in 6.2 mi South 9.2 mph - N/A   Unknown
5:30 PM 84.2 °F 84.4 °F 60.8 °F 45% 29.89 in 6.2 mi South 9.2 mph - N/A   Unknown
6:00 PM 80.6 °F 82.3 °F 64.4 °F 58% 29.89 in 6.2 mi South 11.5 mph - N/A   Unknown
6:30 PM 80.6 °F 82.3 °F 64.4 °F 58% 29.89 in 6.2 mi South 11.5 mph - N/A   Unknown
7:00 PM 77.0 °F - 64.4 °F 65% 29.89 in 6.2 mi South 12.7 mph - N/A   Unknown
7:30 PM 75.2 °F - 64.4 °F 69% 29.86 in 6.2 mi South 13.8 mph - N/A   Unknown
8:00 PM 73.4 °F - 64.4 °F 73% 29.89 in 6.2 mi South 11.5 mph - N/A   Unknown
8:30 PM 73.4 °F - 64.4 °F 73% 29.89 in 6.2 mi South 9.2 mph - N/A   Unknown
9:00 PM 71.6 °F - 66.2 °F 83% 29.89 in 6.2 mi South 6.9 mph - N/A   Overcast
9:30 PM 71.6 °F - 66.2 °F 83% 29.89 in 6.2 mi SSE 4.6 mph - N/A   Overcast
10:00 PM 71.6 °F - 66.2 °F 83% 29.89 in 6.2 mi South 4.6 mph - N/A   Unknown
10:30 PM 71.6 °F - 66.2 °F 83% 29.89 in 6.2 mi SSE 3.5 mph - N/A   Unknown
11:00 PM 71.6 °F - 66.2 °F 83% 29.86 in 6.2 mi SE 6.9 mph - N/A   Unknown
11:30 PM 71.6 °F - 66.2 °F 83% 29.89 in 6.2 mi SW 4.6 mph - N/A   Unknown